Starlink 5147

operational
NORAD ID: 53985 Int'l Des: 2022-125 Owner: SPXS Country: US Constellation: starlink
LEOCIRCULAR

Über Starlink 5147

Beschreibung wird geladen...

Live-Position

3D-Globus wird geladen...

Nächste Überflüge

Höhenverlauf

Altitude vs Time

uPlot chart will show altitude changes over time

Zweizeiliger Elementsatz

1 53985U 22125X 25261.03098670 -.00000758 00000-0 -29541-4 0 9998
2 53985 53.2145 269.4504 0001535 81.3298 278.7868 15.08841763163398
Epoch: 18. Sept. 2025 • Age: 26 hours

Aktueller Status

Höhe 541.4 km
Geschwindigkeit 7.60 km/s
Subsatellitenpunkt 34.51°N, 98.51°W
Startdatum 5. Okt. 2022
Alter 2.9 years
Typ internet

Technische Details

Klassifizierung Payload
Masse 305.00 kg
Trockenmasse 290.00 kg
Gesamtmasse 305.00 kg
Länge 0.20 m
Durchmesser 2.80 m
Spannweite 9.00 m
Form Box + pan
Hersteller SPXS
Bus-Typ Starlink
Phasenstatus In Orbit
Besitzer/Staat SPXS/US

Große Konstellationen

Loading constellations...